Location: Bogotá
(4.6533°N, 74.0837°W)
Time: 23:04:50
(UTC+00:00)

ISS - Pass Details

Date: 10 April 2026
Orbit: 416 x 425 km, 51.6° (Epoch: 18 April)

Event Time Altitude Azimuth Distance (km) Brightness Sun altitude
Exits shadow 09:21:44 - 160° (SSE) 1,561 -0.8 -23.0°
Reaches altitude 10° 09:22:05 10° 155° (SSE) 1,487 -0.8 -22.9°
Maximum altitude 09:23:44 13° 125° (SE) 1,312 -0.7 -22.5°
Drops below altitude 10° 09:25:23 10° 95° (E) 1,488 0.1 -22.1°
Sets 09:28:21 0° 66° (ENE) 2,351 1.5 -21.3°
